Regional Weather Roundup
Issued by NWS State College, PA

Home | Current Version | Previous Version | Graphics & Text | Print | Product List | Glossary On
Versions: 1 2 3 4 5 6 7 8 9 10 11 12 13 14 15 16 17 18 19 20 21 22 23 24 25 26 27 28 29 30 31 32 33 34 35 36 37 38 39 40 41 42 43 44 45 46 47 48 49 50
000
ASUS41 KCTP 191403
RWRCTP

REGIONAL WEATHER ROUNDUP
NATIONAL WEATHER SERVICE STATE COLLEGE PA
900 AM EST SUN NOV 19 2017

Note: "fair" indicates few or no clouds below 12,000 feet with no
significant weather and/or obstructions to visibility.

* = STATION THAT DOES NOT REPORT PRECIPITATION /E.G. RAIN...SNOW...ETC/
    THUNDER OR FOG.

PAZ002>004-007>009-013>016-020>023-029>032-191500-
WESTERN PENNSYLVANIA

CITY           SKY/WX    TMP DP  RH WIND       PRES   REMARKS
ERIE           CLOUDY    40  31  70 W17G28    29.70R
MEADVILLE      CLOUDY    35  30  82 W9        29.70R
FRANKLIN*      LGT RAIN  35  30  82 W14G22    29.69R
NEW CASTLE     CLOUDY    37  32  82 W12G17    29.76R
BEAVER COUNTY  NOT AVBL
BUTLER*        CLOUDY    36  30  79 W10G20    29.74R
PITTSBURGH INT FLURRIES  35  33  92 W13       29.76R
PITTSBURGH     CLOUDY    37  30  75 W10G21    29.75R
INDIANA*       CLOUDY    37  36  93 NW12G22   29.73R
LATROBE        CLOUDY    37  32  81 W14G25    29.75R
WASHINGTON CO* LGT RAIN  37  30  75 W18       29.81R
$$

PAZ004>006-010>012-017>019-024>028-033>037-041-042-045-046-049>053-191500-
CENTRAL PENNSYLVANIA

CITY           SKY/WX    TMP DP  RH WIND       PRES   REMARKS
BRADFORD       CLOUDY    33  30  88 W18G33    29.59R
DUBOIS         CLOUDY    35  31  85 W15G24    29.63R
CLEARFIELD     LGT RAIN  37  35  92 NW8       29.62R FOG
JOHNSTOWN      LGT SNOW  33  31  92 W30G40    29.63S FOG
ALTOONA        LGT RAIN  39  33  79 W17G28    29.65R
STATE COLLEGE  RAIN      39  34  81 NW23      29.59R
WILLIAMSPORT   CLOUDY    45  34  65 W13       29.53R
SELINSGROVE    MOSUNNY   46  33  60 W14G24    29.56R
FT INDIANTOWN  PTSUNNY   46  33  61 W26G40    29.54R
CAPITAL CITY   CLOUDY    48  33  56 W18G26    29.58R
HARRISBURG     PTSUNNY   47  36  65 W22G36    29.57R
YORK           PTSUNNY   46  34  62 W13G24    29.58R
$$

PAZ038>040-043-044-047-048-054-055-060>062-067>071-191500-
EASTERN PENNSYLVANIA

CITY           SKY/WX    TMP DP  RH WIND       PRES   REMARKS
SCRANTON       CLOUDY    43  31  62 W18G33    29.47R
MOUNT POCONO   NOT AVBL
ALLENTOWN      PTSUNNY   48  34  58 W17G35    29.45R
QUAKERTOWN*    MOSUNNY   46  34  61 W15G25    29.46R
READING        PTSUNNY   48  36  63 W28G36    29.50R
LANCASTER      PTSUNNY   48  37  65 W25G40    29.55R
COATESVILLE    MOSUNNY   46  36  66 W25G36    29.53R
POTTSTOWN      LGT RAIN  47  34  60 W16G35    29.50R
BLUE BELL      MOSUNNY   46  34  61 W16G28    29.50R
DOYLESTOWN     MOSUNNY   47  35  63 W22G37    29.44R
WILLOW GROVE   NOT AVBL
NORTH PHILA    MOSUNNY   51  35  54 W30G41    29.48R
PHILADELPHIA   MOSUNNY   51  34  52 W24G41    29.51R
$$




USA.gov is the U.S. government's official web portal to all federal, state and local government web resources and services.